Location: Baia Mare
(47.6567°N, 23.5850°E)
Time: 20:21:46
(UTC+02:00)

ISS - Pass Details

Date: 29 September 2018
Orbit: 402 x 409 km, 51.6° (Epoch: 13 November)

Event Time Altitude Azimuth Distance (km) Brightness Sun altitude
Rises 20:02:43 0° 261° (W) 2,342 1.7 -9.8°
Reaches altitude 10° 20:04:50 10° 266° (W) 1,481 0.5 -10.1°
Maximum altitude 20:08:06 54° 344° (NNW) 508 -3.2 -10.7°
Enters shadow 20:10:58 13° 62° (ENE) 1,320 -1.7 -11.2°
